Home   Weather   Palestine   Past weeks

Flag for USA Past Weather in Palestine, Texas, USA — Yesterday and Last 2 Weeks

Now
58 °F

Fog.


Feels Like: 55 °F
Forecast: 56 / 71 °F
Wind: 13 mph from South

Location: Palestine Municipal Airport

Current Time: Jan 20, 2017 at 4:15:42 am

Latest Report: Jan 20, 2017 at 3:15 am


Visibility: 5 mi

Pressure: 29.71 "Hg

Humidity: 100%

Dew Point: 58 °F

Location of PalestineLocation

Past Weather in Palestine — Graph

°F

Palestine Temperature Yesterday

Maximum temperature yesterday: 58 °F (at 10:55 pm)
Minimum temperature yesterday: 51 °F (at 4:55 am)
Average temperature yesterday: 54 °F

High & Low Weather Summary for the Past Weeks

 TemperatureHumidityPressure
High79 °F (Jan 13, 2:35 pm)100% (Jan 14, 4:15 am)30.78 "Hg (Jan 14, 4:15 am)
Low13 °F (Jan 7, 6:55 am)20% (Jan 8, 3:55 pm)29.70 "Hg (Jan 20, 12:55 am)
Average53 °F82%30.19 "Hg
* Reported Jan 5 2:35 am — Jan 20 2:55 am, Palestine, Weather by CustomWeather, © 2017

Note: Actual official high and low records may vary slightly from our data, if they occured in-between our weather recording intervals... More about our weather records

Advertising

Palestine Weather History for the Previous 24 Hours

Scroll right to see more
 ConditionsComfort  
Time TempWeatherWind HumidityBarometerVisibility
2:55 am
Fri, Jan 20
58 °FFog.10 mph100%29.72 "Hg5 mi
2:15 am57 °FFog.8 mph100%29.71 "Hg5 mi
1:55 am57 °FFog.7 mph100%29.70 "Hg4 mi
1:15 am57 °FFog.7 mph100%29.70 "Hg4 mi
12:55 am57 °FFog.9 mph100%29.70 "Hg5 mi
12:15 am58 °FFog.9 mph100%29.72 "Hg5 mi
11:55 pm
Thu, Jan 19
58 °FLow clouds.9 mph99%29.73 "Hg7 mi
11:15 pm58 °FLow clouds.9 mph98%29.74 "Hg7 mi
10:55 pm58 °FLow clouds.13 mph99%29.74 "Hg7 mi
10:15 pm58 °FLow clouds.8 mph99%29.74 "Hg7 mi
9:55 pm58 °FLow clouds.6 mph99%29.74 "Hg7 mi
9:35 pm57 °FLow clouds.7 mph99%29.74 "Hg7 mi
8:55 pm56 °FLow clouds.3 mph98%29.74 "Hg7 mi
8:15 pm55 °FClear.5 mph98%29.73 "Hg10 mi
7:55 pm56 °FClear.6 mph95%29.74 "Hg10 mi
7:15 pm56 °FOvercast.7 mph94%29.74 "Hg10 mi
6:55 pm56 °FPassing clouds.6 mph94%29.73 "Hg10 mi
6:15 pm56 °FClear.7 mph94%29.73 "Hg10 mi
5:35 pm57 °FPartly sunny.9 mph90%29.74 "Hg10 mi
4:55 pm58 °FPartly sunny.6 mph89%29.74 "Hg10 mi
4:15 pm58 °FOvercast.8 mph90%29.74 "Hg10 mi
3:55 pm58 °FOvercast.8 mph91%29.74 "Hg10 mi
3:15 pm56 °FOvercast.7 mph94%29.74 "Hg10 mi
2:55 pm56 °FOvercast.7 mph99%29.75 "Hg10 mi
2:15 pm54 °FMostly cloudy.6 mph100%29.76 "Hg7 mi
1:55 pm54 °FLow clouds.9 mph100%29.77 "Hg7 mi
1:15 pm54 °FFog.9 mph100%29.80 "Hg3 mi
12:35 pm53 °FFog.8 mph100%29.83 "Hg1 mi
11:55 am52 °FFog.6 mph100%29.87 "Hg1 mi
11:15 am52 °FFog.7 mph100%29.89 "Hg1 mi
10:55 am52 °FFog.6 mph100%29.89 "Hg1 mi
10:15 am51 °FFog.6 mph100%29.90 "Hg1 mi
9:55 am51 °FFog.6 mph100%29.90 "Hg1 mi
9:15 am51 °FFog.No wind100%29.87 "Hg1 mi
8:35 am51 °FFog.No wind100%29.88 "Hg1 mi
7:55 am51 °FFog.3 mph100%29.88 "Hg1 mi
7:15 am51 °FFog.6 mph100%29.90 "Hg1 mi
6:55 am51 °FFog.No wind100%29.88 "Hg1 mi
6:15 am51 °FFog.3 mph100%29.88 "Hg1 mi
5:55 am51 °FFog.3 mph100%29.89 "Hg1 mi
5:35 am51 °FFog.No wind100%29.90 "Hg1 mi
4:55 am51 °FFog.No wind100%29.91 "Hg1 mi
4:15 am51 °FFog.7 mph100%29.94 "Hg3 mi
Weather by CustomWeather, © 2017

See weather overviewHow to use our weather pages